Location: Shandelee
(41.8790°N, 74.8713°W)
Time: 03:57:58
(UTC+00:00)

Cosmos 2297 Rocket - Pass Details

Date: 29 October 2020
Orbit: 838 x 845 km, 71.0° (Epoch: 23 November)

Event Time Altitude Azimuth Distance (km) Brightness Sun altitude
Rises 22:36:50 0° 338° (NNW) 3,412 5.5 -8.0°
Reaches altitude 10° 22:39:19 10° 341° (NNW) 2,473 4.7 -8.5°
Maximum altitude 22:44:57 65° 64° (ENE) 925 2.2 -9.5°
Drops below altitude 10° 22:50:34 10° 146° (SE) 2,456 4.4 -10.5°
Sets 22:53:01 0° 149° (SSE) 3,386 5.1 -11.0°
